Location: Indian Lodge
(32.1088°N, 97.4892°W)
Time: 03:42:31
(UTC+00:00)

Cosmos-2242 - Pass Details

Date: 11 December 2025
Orbit: 566 x 591 km, 82.5° (Epoch: 21 January)

Event Time Altitude Azimuth Distance (km) Brightness Sun altitude
Exits shadow 12:27:32 - 346° (NNW) 2,833 6.1 -11.2°
Rises 12:27:35 0° 346° (NNW) 2,815 6.1 -11.2°
Reaches altitude 10° 12:29:51 10° 341° (NNW) 1,906 5.2 -10.7°
Maximum altitude 12:33:52 47° 268° (W) 774 3.2 -9.9°
Drops below altitude 10° 12:37:58 - 193° (SSW) 1,922 5.7 -9.1°
Sets 12:40:04 0° 188° (S) 2,767 6.6 -8.7°
